Flag for Montenegro Weather past 2 weeks in Podgorica, Montenegro

Now
50 °F

Light rain. Mostly cloudy.


Feels Like: 44 °F
Forecast: 42 / 61 °F
Wind: 17 mph from North

Location: Podgorica Titograd

Current Time: Apr 1, 2015 at 4:44:41 PM

Latest Report: Apr 1, 2015 at 4:00 PM


Visibility: N/A

Pressure: 29.80 "Hg

Humidity: 76%

Dew point: 43 °F

Location of PodgoricaLocation

Historic Weather in Podgorica — Graph

°F

Podgorica temperature yesterday

Maximum temperature yesterday: 68 °F (at 3:30 PM)
Minimum temperature yesterday: 50 °F (at 12:00 AM)
Average temperature yesterday: 58 °F

Past Weeks' High & Low Weather Summary

 TemperatureHumidityPressure
High70 °F (Mar 26, 3:30 PM)100% (Mar 22, 11:00 PM)30.24 "Hg (Mar 22, 11:00 PM)
Low34 °F (Mar 21, 5:30 AM)17% (Mar 20, 3:00 PM)29.56 "Hg (Mar 27, 1:00 PM)
Average53 °F62%29.94 "Hg
* Reported Mar 17 2:00 PM — Apr 1 3:30 PM, Podgorica, Weather by CustomWeather, © 2015

Note: Actual official high and low records may vary slightly from our data, if they occured in-between our weather recording intervals... More about our weather records

Advertising

Podgorica weather history for previous 24 hours

 ConditionsComfort  
Time TempWeatherWind HumidityBarometerVisibility
3:30 PM
Wed, Apr 1
50 °FLight rain. Broken clouds.17 mph76%29.80 "HgN/A
3:00 PM48 °FLight rain. Broken clouds.17 mph71%29.80 "HgN/A
2:30 PM48 °FLight rain. Broken clouds.14 mph82%29.80 "HgN/A
2:00 PM50 °FLight rain. Broken clouds.7 mph94%29.83 "HgN/A
1:30 PM52 °FLight rain. Broken clouds.5 mph88%29.80 "HgN/A
1:00 PM50 °FLight rain. Cloudy.3 mph94%29.80 "HgN/A
12:30 PM52 °FLight rain. Cloudy.7 mph94%29.80 "Hg5 mi
12:00 PM54 °FLight rain. Cloudy.8 mph82%29.80 "HgN/A
11:30 AM54 °FMostly cloudy.8 mph72%29.77 "HgN/A
11:00 AM50 °FCloudy.14 mph82%29.80 "HgN/A
10:30 AM50 °FLight rain. Cloudy.14 mph88%29.80 "Hg5 mi
10:00 AM50 °FLight rain. Cloudy.14 mph88%29.80 "Hg5 mi
9:30 AM54 °FLight rain. Cloudy.9 mph82%29.77 "HgN/A
9:00 AM55 °FMore clouds than sun.8 mph88%29.77 "HgN/A
8:30 AM54 °FLight rain. More clouds than sun.3 mph88%29.77 "HgN/A
8:00 AM54 °FLight rain. More clouds than sun.3 mph82%29.77 "Hg4 mi
7:30 AM55 °FMore clouds than sun.2 mph72%29.77 "HgN/A
7:00 AM55 °FMostly cloudy.2 mph72%29.77 "HgN/A
6:30 AM54 °FMostly cloudy.2 mph77%29.74 "HgN/A
6:00 AM54 °FPartly cloudy.3 mph77%29.74 "HgN/A
5:00 AM55 °FPartly cloudy.3 mph67%29.74 "HgN/A
4:30 AM55 °FPartly cloudy.3 mph67%29.77 "HgN/A
4:00 AM55 °FPartly cloudy.3 mph63%29.77 "HgN/A
3:30 AM55 °FPartly cloudy.6 mph67%29.77 "HgN/A
3:00 AM55 °FPartly cloudy.2 mph63%29.77 "HgN/A
2:30 AM55 °FPartly cloudy.3 mph72%29.80 "HgN/A
1:30 AM55 °FPartly cloudy.5 mph67%29.83 "HgN/A
1:00 AM55 °FPartly cloudy.6 mph72%29.83 "HgN/A
12:30 AM55 °FPartly cloudy.1 mph67%29.83 "HgN/A
12:00 AM57 °FPartly cloudy.2 mph63%29.83 "HgN/A
11:30 PM
Tue, Mar 31
57 °FPartly cloudy.3 mph59%29.83 "HgN/A
11:00 PM57 °FPartly cloudy.2 mph59%29.83 "HgN/A
10:30 PM57 °FPartly cloudy.1 mph59%29.86 "HgN/A
10:00 PM57 °FPassing clouds.5 mph59%29.86 "HgN/A
9:30 PM57 °FPassing clouds.7 mph59%29.83 "HgN/A
9:00 PM57 °FPassing clouds.9 mph55%29.86 "HgN/A
8:30 PM57 °FPassing clouds.6 mph55%29.83 "HgN/A
8:00 PM57 °FScattered clouds.8 mph55%29.83 "HgN/A
7:30 PM57 °FPassing clouds.7 mph55%29.83 "HgN/A
7:00 PM61 °FPassing clouds.3 mph48%29.83 "HgN/A
6:30 PM61 °FSunny.5 mph48%29.80 "Hg10 mi
6:00 PM61 °FSunny.5 mph48%29.80 "Hg10 mi
5:30 PM64 °FPassing clouds.7 mph40%29.80 "HgN/A
5:00 PM66 °FSunny.12 mph40%29.80 "Hg10 mi
4:30 PM64 °FSunny.13 mph43%29.83 "Hg10 mi
4:00 PM66 °FPassing clouds.9 mph43%29.83 "HgN/A
Weather by CustomWeather, © 2015

See weather overviewHow to use our weather pages